[[{"header":{"parameterUnit":"m.s-1","parameterCategory":1,"la1":30.2991,"la2":30.254,"lo1":-89.0895,"lo2":-89.0444,"dy":0.0017,"dx":0.0017,"nx":28,"ny":28,"refTime":"2025-12-14T03:00:00:Z","depth":0,"parameterNumber":2,"parameterNumberName":"U-component_of_WINDS"},"data":[0,0,0,0,0,0,0,0,0,0,0,0,0,0,0,0,0,0,0,0,0,0,0,0,0,0,0,0,0,0,0,0,0,0,0,0,0,0,0,0,0,0,0,0,0,0,0,0,0,0,0,0,0,0,0,0,0,0,-3.3022,-3.3024,0,-3.3144,-3.3145,-3.3146,-3.3074,-3.307,-3.3067,-3.3063,-3.319,-3.3196,-3.3203,0,0,0,0,0,0,0,0,0,0,0,0,0,-3.2728,-3.2734,-3.3022,-3.3024,-3.3025,-3.3143,-3.3145,-3.3147,-3.3074,-3.307,-3.3066,-3.3062,-3.3188,-3.3196,-3.3203,0,0,0,0,0,0,0,0,0,0,0,0,0,-3.2854,-3.2736,-3.3022,-3.3003,-3.3003,-3.3143,-3.3145,-3.3147,-3.3075,-3.307,-3.3065,-3.306,-3.3185,-3.3195,-3.3205,-3.3371,0,0,-3.3235,-3.3239,0,0,0,0,0,0,0,0,-3.2847,-3.2865,-3.3004,-3.3005,-3.3004,-3.3088,-3.3088,-3.3222,-3.3076,-3.3048,-3.3063,-3.3057,-3.316,-3.3172,-3.3206,-3.3377,-3.3382,-3.3236,-3.3242,-3.3246,-3.3249,0,0,0,0,0,0,0,-3.2838,-3.2859,-3.307,-3.3007,-3.3007,-3.2989,-3.3001,-3.3113,-3.3132,-3.305,-3.3045,-3.306,-3.3159,-3.3197,-3.3209,-3.3384,-3.3236,-3.3244,-3.3251,-3.3254,-3.3696,-3.3702,0,0,0,0,0,0,-3.2831,-3.2852,-3.3066,-3.3074,-3.2911,-3.2999,-3.3012,-3.3067,-3.3131,-3.3135,-3.3064,-3.3056,-3.3183,-3.3197,-3.3213,-3.3412,-3.3246,-3.3255,-3.3261,-3.3691,-3.3698,-3.3704,0,0,0,0,0,0,-3.2825,-3.285,-3.3061,-3.2962,-3.2987,-3.3009,-3.3071,-3.3072,-3.3109,-3.3142,-3.3145,-3.3099,-3.3179,-3.3199,-3.3332,-3.3416,-3.326,-3.3269,-3.3684,-3.3693,-3.3701,-3.3812,0,0,0,0,0,0,-3.2816,-3.2849,-3.2912,-3.2964,-3.2993,-3.3179,-3.3076,-3.3078,-3.3126,-3.3117,-3.3175,-3.318,-3.3176,-3.3317,-3.3342,-3.3426,-3.3277,-3.3676,-3.3688,-3.3698,-3.3801,-3.3823,-3.3842,0,0,0,0,0,-3.2806,-3.2939,-3.2916,-3.2942,-3.3073,-3.3184,-3.32,-3.3193,-3.3133,-3.3197,-3.3218,-3.3178,-3.3402,-3.3332,-3.3358,-3.3447,-3.3671,-3.3685,-3.3697,-3.3792,-3.3819,-3.3842,0,0,0,0,0,0,-3.2898,-3.2946,-3.292,-3.3074,-3.3125,-3.3171,-3.3252,-3.3222,-3.3292,-3.3281,-3.3269,-3.3283,-3.3421,-3.3447,-3.3368,-3.3611,-3.3527,-3.3546,-3.359,-3.3616,-3.3636,-3.3628,-3.3285,0,0,0,0,0,-3.2936,-3.3022,-3.3059,-3.3191,-3.3217,-3.323,-3.3278,-3.3268,-3.3321,-3.3343,-3.3373,-3.3427,-3.3509,-3.3563,-3.3641,-3.3803,-3.3815,-3.3877,-3.3898,-3.3915,-3.3932,-3.402,-3.4048,-3.3746,-3.3746,-3.3746,0,0,-3.3016,-3.3052,-3.3108,-3.321,-3.3249,-3.3338,-3.3249,-3.3348,-3.3414,-3.3358,-3.3485,-3.3509,-3.3568,-3.3716,-3.3783,-3.3742,-3.4018,-3.3932,-3.3945,-3.3953,-3.4036,-3.4065,-3.409,-3.3755,-3.3754,-3.3752,0,0,-3.3207,-3.3243,-3.3357,-3.3397,-3.3456,-3.3463,-3.349,-3.3541,-3.3554,-3.3681,-3.3641,-3.3719,-3.3861,-3.3905,-3.3946,-3.4151,-3.4117,-3.4176,-3.4286,-3.4372,-3.4395,-3.4417,-3.4491,-3.4517,-3.4193,-3.4193,-3.4194,0,-3.33,-3.3432,-3.3419,-3.3521,-3.3567,-3.3519,-3.3634,-3.3673,-3.3755,-3.3789,-3.3741,-3.3917,-3.3953,-3.4111,-3.4161,-3.4195,-3.4227,-3.4171,-3.4393,-3.4414,-3.4433,-3.4504,-3.4532,-3.42,-3.4199,-3.4199,-3.4198,0,-3.3543,-3.3636,-3.372,-3.38,-3.3855,-3.3963,-3.3967,-3.4025,-3.4009,-3.4021,-3.4151,-3.4192,-3.4277,-3.4313,-3.4299,-3.4469,-3.4442,-3.4394,-3.431,-3.4469,-3.4536,-3.4563,-3.421,-3.4208,-3.4206,-3.4204,0,0,-3.3799,-3.3867,-3.3899,-3.3934,-3.3995,-3.4066,-3.4171,-3.4253,-3.4303,-3.436,-3.4449,-3.4569,-3.4525,-3.4571,-3.4561,-3.4636,-3.4797,-3.4579,-3.458,-3.4619,-3.4987,-3.5024,-3.5056,-3.4773,-3.4778,-3.4783,-3.4983,0,-3.3995,-3.4179,-3.4169,-3.4342,-3.4427,-3.4381,-3.4472,-3.452,-3.4533,-3.4608,-3.4623,-3.4709,-3.4643,-3.467,-3.4742,-3.4762,-3.4871,-3.4747,-3.4857,-3.4861,-3.4846,-3.509,-3.513,-3.5317,-3.5008,-3.5013,-3.5016,0,-3.4249,-3.4314,-3.4495,-3.4541,-3.4577,-3.466,-3.4734,-3.4805,-3.4857,-3.4862,-3.4912,-3.489,-3.4996,-3.4907,-3.5054,-3.497,-3.5014,-3.503,-3.5037,-3.5049,-3.495,-3.511,-3.5377,-3.5406,-3.5056,-3.5053,-3.505,0,-3.4419,-3.4551,-3.4677,-3.4708,-3.4765,-3.4824,-3.4851,-3.4898,-3.4947,-3.5011,-3.5043,-3.5119,-3.5162,-3.5221,-3.522,-3.5155,-3.5369,-3.5279,-3.5376,-3.5377,-3.5426,-3.5423,-3.5705,-3.5451,-3.5451,-3.545,-3.5449,0,-3.464,-3.4753,-3.4754,-3.4831,-3.4956,-3.4943,-3.5067,-3.5087,-3.5129,-3.5209,-3.5173,-3.525,-3.5242,-3.5319,-3.5318,-3.544,-3.5459,-3.5466,-3.5465,-3.5471,-3.547,-3.5501,-3.5489,-3.5457,-3.5456,-3.5454,-3.5453,0,-3.4853,-3.4857,-3.4991,-3.5033,-3.5046,-3.5137,-3.5173,-3.5246,-3.5255,-3.5358,-3.5381,-3.5397,-3.5485,-3.5489,-3.5591,-3.559,-3.5739,-3.5723,-3.5722,-3.5719,-3.5817,-3.5808,-3.613,-3.6171,-3.5889,-3.5892,-3.5894,0,-3.4995,-3.508,-3.5131,-3.5182,-3.5212,-3.5295,-3.5345,-3.5335,-3.5388,-3.5453,-3.5519,-3.5603,-3.5671,-3.5815,-3.5835,-3.5913,-3.5899,-3.6006,-3.5911,-3.5913,-3.5902,-3.5898,-3.5907,-3.6026,-3.6029,-3.6031,-3.6033,0,-3.5247,-3.5244,-3.5317,-3.5391,-3.5451,-3.5509,-3.5563,-3.5606,-3.5603,-3.5664,-3.5754,-3.5806,-3.591,-3.5995,-3.607,-3.6097,-3.6066,-3.6063,-3.609,-3.6097,-3.6094,-3.6098,-3.5775,-3.6056,-3.6054,-3.6052,-3.6051,-3.605,-3.5429,-3.5503,-3.555,-3.5632,-3.5671,-3.5722,-3.5792,-3.581,-3.5884,-3.5967,-3.5956,-3.6056,-3.6105,-3.6202,-3.6236,-3.6314,-3.6277,-3.6316,-3.6326,-3.6336,-3.6347,-3.608,-3.6327,-3.6326,-3.6326,-3.6325,-3.6325,0,-3.568,-3.5708,-3.5783,-3.5859,-3.5924,-3.5886,-3.5942,-3.5999,-3.6088,-3.6135,-3.6202,-3.6304,-3.6386,-3.6412,-3.6491,-3.6549,-3.6536,-3.657,-3.6567,-3.6574,-3.6375,-3.6344,-3.6579,-3.6579,-3.6579,-3.6579,-3.6579,-3.6579,-3.5819,-3.5942,-3.5944,-3.6086,-3.6112,-3.6209,-3.6245,-3.6291,-3.6329,-3.6445,-3.6513,-3.6528,-3.6567,-3.6649,-3.6722,-3.6727,-3.6759,-3.6799,-3.6799,-3.6613,-3.6588,-3.6564,-3.6535,-3.6806,-3.6806,-3.6992,-3.6993,-3.6995]},{"header":{"parameterUnit":"m.s-1","parameterCategory":1,"la1":30.2991,"la2":30.254,"lo1":-89.0895,"lo2":-89.0444,"dy":0.0017,"dx":0.0017,"nx":28,"ny":28,"refTime":"2025-12-14T03:00:00:Z","depth":0,"parameterNumber":3,"parameterNumberName":"V-component_of_WINDS"},"data":[0,0,0,0,0,0,0,0,0,0,0,0,0,0,0,0,0,0,0,0,0,0,0,0,0,0,0,0,0,0,0,0,0,0,0,0,0,0,0,0,0,0,0,0,0,0,0,0,0,0,0,0,0,0,0,0,0,0,-6.8838,-6.8839,0,-6.8928,-6.8929,-6.893,-6.8849,-6.8845,-6.8842,-6.8839,-6.8926,-6.8931,-6.8937,0,0,0,0,0,0,0,0,0,0,0,0,0,-6.8588,-6.8593,-6.8838,-6.8839,-6.884,-6.8928,-6.8929,-6.8931,-6.8849,-6.8845,-6.8841,-6.8837,-6.8924,-6.8931,-6.8937,0,0,0,0,0,0,0,0,0,0,0,0,0,-6.8689,-6.8595,-6.8838,-6.881,-6.8809,-6.8928,-6.8929,-6.8931,-6.885,-6.8845,-6.884,-6.8836,-6.8922,-6.893,-6.8938,-6.9087,0,0,-6.8963,-6.8966,0,0,0,0,0,0,0,0,-6.8684,-6.8698,-6.8813,-6.8813,-6.8811,-6.8872,-6.8873,-6.8983,-6.8851,-6.8834,-6.8839,-6.8833,-6.8912,-6.892,-6.8948,-6.9091,-6.9095,-6.8964,-6.8968,-6.8972,-6.8974,0,0,0,0,0,0,0,-6.8677,-6.8694,-6.8873,-6.8815,-6.8814,-6.8791,-6.88,-6.8894,-6.89,-6.8835,-6.883,-6.8842,-6.891,-6.8941,-6.895,-6.9096,-6.8963,-6.8971,-6.8976,-6.8979,-6.9363,-6.9368,0,0,0,0,0,0,-6.8673,-6.8689,-6.8871,-6.8876,-6.8734,-6.88,-6.881,-6.8858,-6.8898,-6.89,-6.8846,-6.8838,-6.8929,-6.894,-6.8952,-6.9128,-6.8972,-6.8979,-6.8984,-6.9357,-6.9364,-6.937,0,0,0,0,0,0,-6.8668,-6.8691,-6.8867,-6.8781,-6.8802,-6.8809,-6.8864,-6.8862,-6.8892,-6.8906,-6.8906,-6.8876,-6.8926,-6.8941,-6.9054,-6.9129,-6.8983,-6.899,-6.9351,-6.9359,-6.9367,-6.9481,0,0,0,0,0,0,-6.8662,-6.8689,-6.8748,-6.8783,-6.8807,-6.897,-6.8868,-6.8867,-6.8907,-6.8897,-6.8935,-6.8936,-6.8923,-6.9042,-6.9062,-6.9138,-6.8997,-6.9344,-6.9355,-6.9364,-6.947,-6.9492,-6.951,0,0,0,0,0,-6.8653,-6.8776,-6.8751,-6.8774,-6.8881,-6.8974,-6.8987,-6.8971,-6.8914,-6.8971,-6.898,-6.8935,-6.9118,-6.9055,-6.9076,-6.9156,-6.9339,-6.9352,-6.9364,-6.9461,-6.9487,-6.9509,0,0,0,0,0,0,-6.8748,-6.878,-6.8753,-6.8891,-6.8931,-6.896,-6.9033,-6.9,-6.9055,-6.9043,-6.9019,-6.9028,-6.9147,-6.9162,-6.9091,-6.93,-6.9219,-6.9236,-6.9286,-6.9311,-6.9331,-6.9324,-6.9004,0,0,0,0,0,-6.8785,-6.8861,-6.8884,-6.9003,-6.9025,-6.9026,-6.9066,-6.905,-6.9089,-6.9105,-6.9121,-6.916,-6.9225,-6.9269,-6.933,-6.9472,-6.9477,-6.9537,-6.9557,-6.9573,-6.9588,-6.9661,-6.9687,-6.9409,-6.9409,-6.9409,0,0,-6.8862,-6.8889,-6.8938,-6.9023,-6.9052,-6.9128,-6.904,-6.9125,-6.918,-6.9117,-6.9225,-6.9238,-6.9279,-6.9406,-6.9463,-6.9423,-6.9666,-6.9588,-6.9601,-6.9607,-6.9676,-6.9702,-6.9726,-6.9417,-6.9416,-6.9415,0,0,-6.9042,-6.9071,-6.9173,-6.9203,-6.9248,-6.9248,-6.9272,-6.9306,-6.9313,-6.9421,-6.9374,-6.9439,-6.9554,-6.9584,-6.9614,-6.9803,-6.9763,-6.9823,-6.9927,-6.9998,-7.002,-7.0039,-7.0105,-7.0129,-6.9838,-6.9838,-6.9838,0,-6.9132,-6.9247,-6.9229,-6.9317,-6.9354,-6.9301,-6.9402,-6.9432,-6.9494,-6.952,-6.9475,-6.9616,-6.9639,-6.9772,-6.9818,-6.9845,-6.987,-6.9819,-7.0019,-7.0038,-7.0056,-7.0117,-7.0142,-6.9845,-6.9844,-6.9844,-6.9843,0,-6.9354,-6.9434,-6.9511,-6.9573,-6.9619,-6.9713,-6.9707,-6.9755,-6.9735,-6.9738,-6.9847,-6.9873,-6.9938,-6.9968,-6.9949,-7.0098,-7.0071,-7.0023,-6.994,-7.0089,-7.0147,-7.0171,-6.9855,-6.9852,-6.985,-6.9849,0,0,-6.9596,-6.9647,-6.9675,-6.9702,-6.9746,-6.9807,-6.9897,-6.9962,-7.0003,-7.0047,-7.012,-7.0217,-7.0172,-7.0207,-7.019,-7.0253,-7.0398,-7.0196,-7.0197,-7.0231,-7.056,-7.0596,-7.0624,-7.0372,-7.0377,-7.038,-7.0556,0,-6.9776,-6.9936,-6.9921,-7.0071,-7.0143,-7.0093,-7.0171,-7.0205,-7.0211,-7.0271,-7.0275,-7.0344,-7.0281,-7.0301,-7.0361,-7.0368,-7.0463,-7.0355,-7.0438,-7.0441,-7.0428,-7.0654,-7.0692,-7.0857,-7.0579,-7.0583,-7.0586,0,-7.0007,-7.0061,-7.0218,-7.025,-7.028,-7.0351,-7.0407,-7.0467,-7.0503,-7.0502,-7.054,-7.0512,-7.06,-7.0516,-7.0636,-7.0562,-7.0595,-7.0603,-7.0609,-7.0615,-7.0522,-7.0664,-7.091,-7.0934,-7.0621,-7.0618,-7.0616,0,-7.0166,-7.0277,-7.0385,-7.041,-7.045,-7.05,-7.0519,-7.0551,-7.059,-7.0639,-7.0664,-7.0722,-7.0753,-7.0798,-7.0784,-7.0725,-7.0906,-7.0822,-7.0905,-7.0906,-7.0945,-7.0942,-7.1197,-7.0969,-7.0968,-7.0968,-7.0967,0,-7.0368,-7.0466,-7.0457,-7.0523,-7.063,-7.0611,-7.0717,-7.0729,-7.0757,-7.0823,-7.0783,-7.0845,-7.0824,-7.0885,-7.0875,-7.0973,-7.0988,-7.0988,-7.0984,-7.0991,-7.0991,-7.1011,-7.0999,-7.0974,-7.0973,-7.0972,-7.097,0,-7.0563,-7.0561,-7.0675,-7.0704,-7.0713,-7.0791,-7.0814,-7.0875,-7.0876,-7.096,-7.0978,-7.098,-7.1049,-7.104,-7.1117,-7.111,-7.1232,-7.1215,-7.122,-7.1216,-7.1299,-7.1291,-7.1575,-7.161,-7.136,-7.1363,-7.1365,0,-7.0691,-7.0765,-7.0802,-7.0844,-7.0867,-7.0935,-7.0974,-7.0957,-7.1,-7.1046,-7.1101,-7.1166,-7.1217,-7.1329,-7.1335,-7.1393,-7.1375,-7.1471,-7.1384,-7.1388,-7.1374,-7.137,-7.1376,-7.1488,-7.1491,-7.1493,-7.1495,0,-7.0918,-7.0913,-7.0973,-7.1033,-7.1081,-7.1127,-7.1168,-7.1204,-7.119,-7.1239,-7.131,-7.135,-7.1427,-7.1492,-7.1545,-7.1561,-7.1526,-7.1522,-7.1544,-7.1552,-7.1551,-7.1551,-7.1265,-7.1516,-7.1514,-7.1512,-7.1511,-7.151,-7.1083,-7.1145,-7.1181,-7.1248,-7.1277,-7.1316,-7.1374,-7.1383,-7.1442,-7.1505,-7.1491,-7.1569,-7.1601,-7.167,-7.1692,-7.1751,-7.1716,-7.1748,-7.1756,-7.1764,-7.1773,-7.1543,-7.1761,-7.176,-7.176,-7.1759,-7.1759,0,-7.1306,-7.1326,-7.1388,-7.1447,-7.1499,-7.1462,-7.1505,-7.155,-7.1621,-7.1655,-7.1706,-7.1785,-7.1847,-7.1858,-7.1916,-7.1961,-7.1946,-7.1977,-7.1972,-7.1976,-7.1802,-7.1777,-7.1988,-7.1988,-7.1988,-7.1988,-7.1988,-7.1988,-7.1428,-7.1532,-7.1531,-7.1647,-7.1665,-7.1744,-7.1771,-7.1805,-7.1832,-7.1923,-7.1975,-7.1982,-7.2006,-7.2065,-7.2119,-7.212,-7.2142,-7.218,-7.2175,-7.2012,-7.1989,-7.1967,-7.1943,-7.2185,-7.2185,-7.2343,-7.2344,-7.2346]}]]